KMSL

Last updated on Thu Apr 22 2021 00:02:03 GMT+0000 (Coordinated Universal Time)

1 47950U 21022U 21111.57728306 .00000724 00000-0 54276-4 0 9997 2 47950 97.5595 14.8579 0022280 142.3771 336.0055 15.05552612 4491

Satellite not in orbit

KMSL